SCP
1 1 0 0 0 0 0 0 0 0 0 0 0 0 1 1 1 1 2 3 4 4 4 4 3 2 2 2 3 4 4 4 4 3 3 3 3 3 4 3 3 2 2 2
0 0 0 0 0 0 0 0 0 0 0 0 0 1 1 1 1 1 2 3 4 4 4 3 3 2 2 3 4 4 4 4 4 3 3 3 3 3 4 4 3 3 2 2
0 0 0 0 0 0 0 0 0 0 0 0 0 1 2 2 1 1 2 3 4 4 3 3 3 3 3 4 5 5 5 4 4 4 3 3 3 3 4 4 4 3 3 2
0 0 0 0 0 0 0 0 0 0 0 1 1 1 1 1 1 1 2 3 3 4 3 3 4 4 4 4 5 5 5 4 4 4 4 3 3 3 4 4 5 4 4 3
0 0 0 0 0 0 0 0 0 0 1 1 1 1 1 2 3 4 5 5 5 5 4 5 6 7 6 5 5 5 5 5 4 4 4 4 3 3 4 4 5 5 5 4
0 0 0 0 0 0 0 0 0 0 0 0 0 1 1 2 5 9 10 8 7 6 5 6 8 8 8 7 7 6 5 5 5 4 5 5 5 5 5 5 5 5 5 5
0 0 0 0 0 0 0 0 0 0 0 0 0 1 1 4 7 10 10 9 7 5 5 5 6 7 8 10 10 8 7 7 6 5 5 7 8 8 7 6 5 5 5 5
0 0 0 0 0 0 0 0 0 0 0 0 0 1 3 6 8 7 7 5 4 3 3 3 3 4 6 9 10 11 10 10 9 9 9 9 10 9 7 6 5 5 5 5
0 0 0 0 0 0 0 0 0 0 0 0 1 3 6 8 7 6 4 3 2 2 2 2 3 3 5 6 8 10 10 10 10 11 12 11 11 10 9 8 8 8 8 9
0 0 0 0 0 0 0 0 0 0 0 0 0 2 7 9 8 6 4 2 2 1 2 2 3 3 4 5 6 8 9 9 8 9 9 8 9 11 12 12 11 12 13 15
0 0 0 0 0 0 0 0 0 1 1 1 0 1 5 10 10 7 4 2 2 1 1 2 2 3 3 4 5 6 8 9 8 6 5 5 7 9 10 10 10 11 14 16
0 0 0 0 0 0 0 0 0 1 1 1 1 1 5 11 11 7 4 3 2 2 2 2 2 3 3 4 5 7 9 10 9 8 6 6 7 8 8 8 9 10 12 13
0 0 0 0 0 0 0 0 0 0 1 0 1 2 7 10 8 6 4 3 3 3 2 3 3 3 4 5 6 8 9 10 10 8 7 8 9 11 12 11 12 12 12 12
0 0 0 0 0 1 0 0 0 0 0 0 1 3 7 7 6 5 5 4 4 4 4 4 4 4 5 6 8 10 9 9 9 7 8 10 13 15 16 15 14 14 13 12
0 0 0 0 0 1 1 0 0 0 0 0 1 3 5 5 5 5 5 5 4 4 4 5 5 6 6 7 10 11 9 8 7 7 8 12 15 18 18 17 16 15 12 10
0 1 1 0 0 0 1 0 0 0 0 1 1 3 4 5 5 5 5 5 4 4 4 5 6 7 8 8 9 10 9 8 7 7 8 13 16 19 19 18 16 13 10 9
1 1 1 1 0 0 0 1 1 1 1 1 2 2 3 5 5 5 5 4 4 4 4 5 6 8 9 9 8 9 9 9 8 7 9 13 17 19 18 16 13 11 9 9
1 2 1 1 1 0 0 1 1 2 2 2 2 3 4 5 5 5 4 4 4 4 5 6 7 9 10 9 8 8 9 9 8 8 10 13 15 16 15 12 10 9 9 9
1 1 2 1 1 1 1 1 1 2 2 3 3 3 4 5 5 4 4 5 6 6 5 6 7 8 11 10 9 9 9 9 8 8 9 11 12 12 11 10 9 9 10 10
1 1 1 1 1 1 1 1 1 1 2 3 4 4 5 5 5 5 5 7 8 8 7 6 7 8 11 12 11 10 10 8 7 8 9 9 11 11 11 9 8 9 10 10
1 1 1 1 1 1 1 1 1 2 3 4 4 5 7 6 5 6 7 8 10 10 8 7 7 9 11 13 12 10 9 8 7 8 9 9 11 12 10 8 8 9 10 9
2 2 1 1 2 3 3 3 3 4 4 4 4 5 7 7 6 7 8 9 9 9 8 8 8 8 10 11 12 11 10 9 8 8 9 10 11 11 10 8 8 10 10 10
2 3 3 3 4 5 6 6 6 6 5 4 4 5 7 8 8 10 10 9 8 8 9 9 8 8 8 9 10 11 12 10 9 9 10 11 12 12 11 9 9 10 11 11
2 3 4 4 5 6 6 6 7 6 5 5 5 7 8 9 10 12 11 9 8 8 10 11 10 8 7 8 8 9 10 10 9 9 10 12 13 13 13 12 11 12 13 13
2 3 4 4 5 6 5 5 5 5 5 5 7 9 11 11 11 11 10 9 8 7 8 9 9 7 6 6 7 7 8 8 9 9 10 11 12 13 13 13 13 13 13 14
2 3 4 4 4 4 4 4 4 4 4 5 7 10 13 14 12 10 9 8 7 6 6 6 6 6 5 5 6 7 7 8 9 10 10 10 10 11 11 13 13 13 12 12
Wind_Speed
12 11 9 8 10 10 8 7 5 2 3 4 4 7 9 10 10 10 10 11 10 10 11 11 10 9 9 9 7 6 5 4 3 2 2 2 2 1 2 2 3 2 2 3
10 12 11 10 10 9 7 9 5 3 4 4 5 6 7 9 9 10 11 11 12 11 11 10 10 9 10 9 7 6 6 5 3 2 2 2 2 2 2 2 2 3 2 2
13 11 10 9 9 9 9 9 8 6 6 6 5 5 8 8 8 8 10 11 12 12 12 11 10 9 10 9 8 7 6 5 4 3 2 2 2 1 2 2 2 2 2 2
13 13 10 9 10 11 9 8 8 8 8 6 8 5 8 10 10 10 9 10 12 12 13 12 11 10 10 10 9 7 6 5 5 4 3 3 3 2 2 2 2 2 3 3
12 12 11 10 9 9 7 6 8 9 8 7 8 6 6 9 10 11 11 10 11 11 12 13 12 10 10 10 10 8 7 5 5 4 4 3 2 2 2 2 3 3 3 3
13 11 10 10 9 8 7 7 8 9 7 8 8 6 5 6 9 10 10 10 11 11 11 11 11 10 9 10 10 10 8 6 5 5 4 3 3 2 2 3 3 3 3 3
13 13 11 10 10 9 9 7 5 6 6 7 7 6 3 5 7 9 10 10 11 10 10 11 11 11 9 9 9 9 9 8 6 6 5 4 4 3 3 3 3 2 2 3
11 11 11 10 10 9 9 9 7 6 6 5 4 4 3 7 8 9 10 10 10 10 10 10 11 11 10 9 9 9 10 8 7 6 5 4 4 3 3 3 2 2 2 3
9 10 9 9 9 10 10 9 9 9 8 5 3 2 3 7 9 9 10 9 8 8 9 9 10 10 10 9 9 10 9 8 7 6 5 5 5 4 3 3 2 1 1 2
9 10 9 9 9 11 10 8 7 7 5 6 5 5 4 6 8 9 9 8 8 7 8 9 9 9 9 9 8 9 10 9 8 7 6 6 5 4 3 2 2 1 1 1
10 11 10 9 10 10 10 10 9 6 6 6 5 3 3 6 7 9 8 8 8 7 7 7 7 8 8 8 8 8 8 8 7 7 6 4 5 5 4 3 2 2 1 2
8 9 10 11 10 11 11 10 9 7 6 7 5 3 1 5 5 7 8 8 7 6 6 5 6 7 7 7 7 8 8 8 7 6 5 5 4 4 4 3 2 2 2 2
4 7 9 10 10 10 10 10 10 8 6 7 7 4 4 4 5 6 7 8 7 6 5 5 4 4 5 5 5 6 7 7 6 6 6 4 4 4 4 3 3 2 2 2
6 8 10 10 8 7 9 10 10 8 7 7 7 4 3 1 3 5 7 7 7 6 5 4 4 3 3 3 3 4 5 5 6 6 5 4 4 4 3 3 3 2 2 2
8 10 11 12 12 10 10 10 10 10 9 9 6 5 3 2 3 4 6 6 6 5 4 4 4 3 2 3 4 4 4 4 4 5 5 5 4 4 4 3 3 2 2 3
7 8 10 12 11 9 10 10 11 11 10 9 5 3 2 3 3 3 5 5 5 4 4 4 3 3 2 3 3 4 3 4 4 4 5 4 4 4 4 4 4 3 2 2
6 6 9 10 8 8 10 10 10 9 8 8 6 3 2 2 2 3 3 4 4 4 3 3 3 2 2 2 3 4 3 3 4 4 4 5 4 4 4 4 4 3 3 2
6 6 7 9 8 10 7 6 6 6 5 3 3 2 1 3 3 4 4 4 4 3 3 2 2 2 2 2 2 3 4 3 3 3 4 4 4 4 4 4 4 3 3 3
9 7 8 9 10 9 7 4 5 5 4 1 0 1 2 4 4 4 5 4 3 4 3 2 2 2 2 2 1 3 4 4 4 3 4 4 4 4 4 4 3 3 3 3
9 7 9 9 10 8 3 3 5 6 4 1 1 2 2 2 1 2 4 5 5 4 4 3 3 3 2 2 2 3 4 4 3 3 3 3 4 4 4 4 3 3 2 3
10 9 10 10 9 4 4 4 4 5 0 2 2 3 2 2 2 4 5 6 6 5 5 4 4 3 3 3 2 2 3 3 2 3 3 3 4 4 4 4 3 3 3 3
8 8 8 8 9 5 5 4 2 2 4 4 5 4 4 5 7 7 7 6 5 5 4 4 4 4 4 3 2 3 2 1 2 2 3 3 4 4 4 3 3 3 3 3
5 5 3 2 3 1 4 4 3 3 4 3 3 3 3 4 5 6 6 5 5 5 4 4 5 5 5 4 3 3 2 2 2 1 1 2 3 3 3 3 4 3 3 3
4 3 3 2 2 1 2 4 4 3 4 3 3 3 3 4 5 5 6 5 4 4 4 4 5 5 5 4 4 3 3 2 1 1 0 1 2 2 2 2 2 2 3 3
4 3 4 3 2 0 1 3 3 4 3 3 3 4 4 5 5 5 5 4 4 4 4 4 4 4 4 3 3 3 3 2 1 0 1 1 2 2 3 2 1 2 2 3
5 4 3 2 1 1 1 2 3 3 3 3 4 5 4 5 5 5 5 4 4 4 4 4 4 4 3 3 3 3 3 2 1 1 1 1 1 2 2 3 2 2 3 5
Wind_Direction
221 229 234 236 229 247 262 267 266 231 179 190 193 166 165 167 171 167 164 159 158 156 154 154 156 149 142 138 136 137 137 135 136 136 145 144 138 133 128 132 126 132 140 151
228 232 235 238 238 238 250 266 263 237 206 217 213 178 163 173 184 170 166 163 163 160 157 156 157 155 149 145 144 141 143 149 151 137 137 152 151 149 126 121 133 148 147 163
234 240 226 229 242 242 239 247 251 243 233 227 222 193 175 177 182 175 170 165 165 165 162 160 161 161 157 153 154 156 154 152 154 154 156 144 140 144 130 145 142 151 158 155
241 245 237 228 236 244 246 243 250 254 249 237 237 219 181 181 186 182 179 170 165 166 162 163 166 167 163 157 157 148 149 154 159 172 167 168 166 160 156 148 143 159 168 163
239 234 240 236 238 245 257 260 256 255 262 260 252 248 192 182 182 182 177 170 160 163 164 164 167 167 167 162 158 154 152 157 163 177 174 179 176 162 156 140 152 170 168 169
249 240 240 246 243 239 253 256 260 257 256 252 244 251 212 192 183 175 166 163 159 160 159 160 161 162 168 165 161 158 155 160 169 178 181 192 188 173 153 161 168 181 170 174
244 242 232 231 241 233 235 238 247 251 242 239 232 237 205 175 166 158 158 158 157 158 158 159 159 163 169 166 161 156 158 166 173 179 186 187 188 183 180 188 193 187 178 174
237 239 232 225 230 242 233 235 246 260 263 262 242 228 182 149 140 139 142 145 155 158 160 162 162 166 171 171 165 158 158 166 173 178 182 182 180 188 199 200 212 188 178 166
249 244 230 224 227 240 237 235 242 256 274 280 250 204 143 147 140 140 139 144 149 158 162 163 162 167 171 173 171 165 160 165 172 178 177 181 189 196 199 182 201 200 163 166
262 264 239 221 223 227 239 244 247 249 265 263 253 239 182 164 151 144 141 141 141 153 160 160 162 163 168 172 170 165 164 167 173 179 186 187 186 189 177 184 205 170 136 117
254 263 249 230 226 231 224 233 241 251 253 261 253 256 168 167 160 156 153 146 147 152 147 153 156 157 163 168 167 171 165 166 174 182 190 186 178 181 178 190 195 162 156 154
251 264 261 245 231 239 241 237 239 244 255 270 268 259 218 159 162 153 145 138 140 141 137 141 148 154 161 167 169 174 170 174 178 179 184 180 171 174 180 184 186 174 169 173
264 261 258 245 231 221 238 238 243 249 254 253 253 216 176 152 135 135 131 128 124 121 119 121 125 129 149 162 170 170 172 174 174 175 179 175 169 168 173 175 171 168 168 176
242 243 256 259 259 244 245 244 242 244 248 248 242 215 179 134 121 125 121 124 128 126 120 118 112 117 134 149 158 159 168 170 171 173 176 172 174 172 169 165 157 160 170 181
248 248 253 265 271 253 247 246 244 242 246 255 251 222 188 147 135 130 122 121 128 131 127 119 112 115 152 159 160 158 165 164 170 172 176 174 169 158 157 159 156 162 187 201
244 264 264 261 262 267 263 251 249 248 243 247 253 264 157 126 111 123 125 129 131 133 136 131 128 130 148 162 163 158 157 160 163 172 170 158 159 157 156 159 158 164 179 186
248 260 266 258 253 262 258 261 251 249 250 246 246 244 161 123 92 104 129 141 137 134 123 111 113 118 129 157 153 153 156 152 160 165 157 153 158 157 158 170 164 171 180 177
254 264 257 257 255 244 245 267 269 264 265 262 247 246 171 115 81 80 87 102 105 93 100 104 108 114 115 112 128 148 147 145 152 154 153 153 158 161 160 163 172 177 177 179
234 235 248 250 248 242 244 265 283 268 255 286 139 102 87 92 101 100 80 81 91 103 97 91 94 85 83 111 119 138 142 146 157 162 161 164 168 163 157 164 179 180 178 186
230 218 241 248 248 245 261 287 300 276 219 75 82 73 85 103 212 99 78 76 74 82 90 90 99 96 78 76 99 135 146 149 164 168 163 163 163 163 164 172 179 180 186 198
222 220 230 246 248 244 308 316 294 260 305 21 63 81 63 37 76 95 88 77 76 70 73 77 91 93 77 63 86 112 140 155 157 149 150 166 165 170 166 171 180 185 195 203
232 226 225 239 246 249 324 318 348 32 38 37 44 57 60 71 86 93 90 83 87 80 77 79 80 77 71 66 76 81 88 102 114 137 159 172 173 183 177 175 185 192 197 206
242 260 253 243 238 61 27 41 58 49 42 43 46 52 69 90 96 100 97 89 86 86 77 78 80 74 66 57 61 71 63 76 93 109 146 174 182 175 169 182 192 195 200 218
235 256 253 251 229 211 51 59 39 38 45 36 33 59 83 93 103 106 101 95 89 82 72 72 77 77 68 57 47 48 41 65 108 134 172 212 190 175 168 185 192 200 217 219
298 266 252 250 239 205 74 53 53 50 37 37 34 63 82 101 106 102 100 94 90 86 76 77 76 77 76 64 47 39 32 30 52 145 208 215 203 188 174 183 199 202 208 211
317 294 253 245 306 300 62 47 53 54 50 53 56 62 69 96 99 97 99 96 97 97 89 84 82 76 68 66 52 36 22 14 40 1 273 255 225 198 189 184 198 214 210 202